Zurück zum Katalog

FENGYUN 1C DEB

LostPO
NORAD 38126·DEBRIS·🇨🇳 China

Gestartet May 10, 1999 von Taiyuan Satellite Launch Center

Loading…

Nächste Überflüge (nächste 24 Stunden)

TLE

VeraltetSource: Space-Track

Epoche: Sep 5, 2013, 13:51 UTC

1 38126U 99025EPX 13248.57725935 +.00000508 +00000-0 +71300-3 0  9993
2 38126 098.7260 289.7725 0341383 170.5848 188.4914 13.39621878144393

Verfolge FENGYUN 1C DEB in Echtzeit mit AllMySat

Download on the App Store